EW3232 Weather Reports


Display with metric or nautical units.
time (UTC)temp
F
wind
direction
speed
MPH
gust
MPH
rain 1hr
in
rain 24hr
in
rain mn
in
humidity
%
barometer
mb
20220517211718 67 339 1.0 4.0 0.00 0.00 0.00 76 1020.0
20220517211313 67 349 1.0 2.0 0.00 0.00 0.00 76 1020.0
20220517210930 68 10 0.0 1.0 0.00 0.00 0.00 75 1020.0
20220517210625 68 10 1.0 2.0 0.00 0.00 0.00 75 1020.0
20220517210216 68 10 1.0 2.0 0.00 0.00 0.00 75 1020.0
20220517205638 68 10 1.0 3.0 0.00 0.00 0.00 74 1019.8
20220517205222 69 9 2.0 3.0 0.00 0.00 0.00 73 1019.8
20220517204615 69 300 3.0 4.0 0.00 0.00 0.00 73 1019.9
20220517204212 69 344 3.0 4.0 0.00 0.00 0.00 73 1019.8
20220517203702 69 313 2.0 4.0 0.00 0.00 0.00 73 1019.8
20220517203248 69 327 3.0 5.0 0.00 0.00 0.00 72 1019.8
20220517202903 69 329 4.0 6.0 0.00 0.00 0.00 72 1019.8
20220517202444 69 320 5.0 6.0 0.00 0.00 0.00 72 1019.7
20220517202103 69 301 5.0 7.0 0.00 0.00 0.00 72 1019.7
20220517201714 69 308 5.0 7.0 0.00 0.00 0.00 72 1019.7
20220517201300 69 306 3.0 6.0 0.00 0.00 0.00 72 1019.7
20220517200840 68 327 2.0 4.0 0.00 0.00 0.00 72 1019.7
20220517200458 69 318 3.0 6.0 0.00 0.00 0.00 72 1019.7
20220517200225 69 10 3.0 6.0 0.00 0.00 0.00 72 1019.7
20220517195653 69 293 3.0 6.0 0.00 0.00 0.00 72 1019.6
20220517195210 69 316 2.0 5.0 0.00 0.00 0.00 72 1019.5
20220517194814 69 328 2.0 4.0 0.00 0.00 0.00 72 1019.5
20220517194626 69 320 2.0 4.0 0.00 0.00 0.00 72 1019.5
20220517194102 69 333 3.0 4.0 0.00 0.00 0.00 72 1019.5
20220517193617 69 10 3.0 5.0 0.00 0.00 0.00 71 1019.4
20220517193334 69 312 3.0 5.0 0.00 0.00 0.00 71 1019.4
20220517192830 70 344 2.0 4.0 0.00 0.00 0.00 71 1019.4
20220517192549 70 318 2.0 4.0 0.00 0.00 0.00 71 1019.4
20220517192154 70 354 2.0 3.0 0.00 0.00 0.00 71 1019.4
20220517191732 71 24 1.0 3.0 0.00 0.00 0.00 71 1019.2
20220517191303 71 359 1.0 3.0 0.00 0.00 0.00 70 1019.2
20220517190957 71 12 1.0 3.0 0.00 0.00 0.00 70 1019.2
20220517190621 72 12 1.0 3.0 0.00 0.00 0.00 68 1019.2
20220517190147 72 50 0.0 1.0 0.00 0.00 0.00 68 1019.3
20220517185702 72 50 1.0 3.0 0.00 0.00 0.00 66 1019.2
20220517185425 73 50 1.0 3.0 0.00 0.00 0.00 66 1019.2
20220517184913 73 12 1.0 3.0 0.00 0.00 0.00 66 1019.1
20220517184651 74 8 0.0 3.0 0.00 0.00 0.00 65 1019.1
20220517184034 74 57 1.0 2.0 0.00 0.00 0.00 66 1019.0
20220517183700 74 57 1.0 2.0 0.00 0.00 0.00 63 1019.0
20220517183227 75 59 1.0 2.0 0.00 0.00 0.00 64 1019.0
20220517182908 75 59 1.0 2.0 0.00 0.00 0.00 63 1019.0
20220517182515 75 59 1.0 2.0 0.00 0.00 0.00 62 1019.0
20220517182116 76 59 1.0 2.0 0.00 0.00 0.00 60 1018.9
20220517181746 77 57 1.0 2.0 0.00 0.00 0.00 59 1018.9
20220517181354 77 87 1.0 2.0 0.00 0.00 0.00 59 1018.8
20220517181118 78 112 2.0 4.0 0.00 0.00 0.00 58 1018.8
20220517180651 78 113 2.0 5.0 0.00 0.00 0.00 57 1018.7
20220517180219 78 121 3.0 5.0 0.00 0.00 0.00 57 1018.8
20220517175653 78 131 4.0 7.0 0.00 0.00 0.00 56 1018.7
20220517175405 78 136 4.0 7.0 0.00 0.00 0.00 56 1018.7
20220517174834 79 154 4.0 7.0 0.00 0.00 0.00 55 1018.7
20220517174447 79 154 3.0 7.0 0.00 0.00 0.00 55 1018.7
20220517174211 79 153 3.0 5.0 0.00 0.00 0.00 57 1018.7
20220517173812 80 119 3.0 6.0 0.00 0.00 0.00 58 1018.7
20220517173428 79 134 3.0 6.0 0.00 0.00 0.00 57 1018.8
20220517172950 79 95 2.0 6.0 0.00 0.00 0.00 58 1018.7
20220517172612 80 56 2.0 5.0 0.00 0.00 0.00 57 1018.7
20220517172211 80 76 3.0 5.0 0.00 0.00 0.00 56 1018.7
20220517171639 80 85 3.0 5.0 0.00 0.00 0.00 55 1018.7
20220517171252 80 84 3.0 5.0 0.00 0.00 0.00 57 1018.8
20220517171013 80 71 2.0 5.0 0.00 0.00 0.00 55 1018.8
20220517170604 80 75 3.0 5.0 0.00 0.00 0.00 55 1018.7
20220517170215 80 88 3.0 5.0 0.00 0.00 0.00 54 1018.8
20220517165702 80 72 4.0 5.0 0.00 0.00 0.00 53 1018.7
20220517165315 80 74 3.0 5.0 0.00 0.00 0.00 54 1018.7